Westhampton Beach, NY

5:37 AM EDT on October 18, 2019 (GMT -0400)
The Gabreski

Weather History for KFOK - September, 2019

Change the Weather History Date:

Friday, September 20, 2019

  Actual Average Record
Temperature  
Mean Temperature 56 °F -  
Max Temperature 78 °F 70 °F 80 °F (2003)
Min Temperature 36 °F 50 °F 36 °F (2019)
Degree Days  
Heating Degree Days 8    
Growing Degree Days 6 (Base 50)    
Moisture  
Dew Point 43 °F    
Average Humidity 70    
Maximum Humidity 93    
Minimum Humidity 26    
Precipitation  
Precipitation 0.00 in - - ()
Sea Level Pressure  
Sea Level Pressure 30.23 in    
Wind  
Wind Speed 3 mph (West)    
Max Wind Speed 15 mph    
Max Gust Speed 21 mph    
Visibility 10 miles    
Events      
Averages and records for this station are not official NWS values.
T = Trace of Precipitation, MM = Missing Value Source: NWS Daily Summary

Daily Weather History Graph

Daily Weather History Graph

Search for Another Location

Airport or City:

Astronomy

Sep. 20, 2019 Rise Set
Actual Time 6:35 AM EDT 6:51 PM EDT
Civil Twilight 6:08 AM EDT 7:18 PM EDT
Nautical Twilight 5:36 AM EDT 7:50 PM EDT
Astronomical Twilight 5:03 AM EDT 8:23 PM EDT
Moon 10:36 PM EDT (9/20) 12:39 PM EDT (9/20)
Length of Visible Light 13h 10m
Length of Day
12h 15m
Waning Gibbous, 65% of the Moon is Illuminated
Sep 20
Waning Gibbous
Sep 21
Last Quarter
Sep 28
New
Oct 5
First Quarter
Oct 13
Full

Hourly Weather History & Observations

Time (EDT) Temp. Dew Point Humidity Pressure Visibility Wind Dir Wind Speed Gust Speed Precip Events Conditions
12:53 AM 39.0 °F 36.0 °F 89% 30.29 in 10.0 mi Calm Calm - N/A   Clear
1:53 AM 39.0 °F 35.1 °F 86% 30.27 in 10.0 mi Calm Calm - N/A   Clear
2:53 AM 37.9 °F 36.0 °F 93% 30.26 in 10.0 mi Calm Calm - N/A   Clear
3:53 AM 37.0 °F 34.0 °F 89% 30.26 in 10.0 mi Calm Calm - N/A   Clear
4:07 AM 37.0 °F 34.0 °F 89% 30.26 in 10.0 mi Calm Calm - N/A   Scattered Clouds
4:29 AM 37.0 °F 35.1 °F 93% 30.26 in 10.0 mi Calm Calm - N/A   Mostly Cloudy
4:44 AM 37.0 °F 34.0 °F 89% 30.26 in 10.0 mi Calm Calm - N/A   Scattered Clouds
4:53 AM 36.0 °F 34.0 °F 93% 30.26 in 10.0 mi Calm Calm - N/A   Partly Cloudy
5:53 AM 36.0 °F 34.0 °F 93% 30.26 in 2.0 mi Calm Calm - N/A   Clear
6:05 AM 37.0 °F 33.1 °F 86% 30.26 in 10.0 mi Calm Calm - N/A   Clear
6:53 AM 36.0 °F 33.1 °F 89% 30.27 in 10.0 mi Calm Calm - N/A   Clear
7:53 AM 48.0 °F 45.0 °F 89% 30.27 in 10.0 mi Calm Calm - N/A   Clear
8:53 AM 62.1 °F 51.1 °F 67% 30.27 in 10.0 mi West 6.9 mph - N/A   Clear
9:53 AM 66.9 °F 50.0 °F 54% 30.26 in 10.0 mi NW 15.0 mph - N/A   Clear
10:53 AM 72.0 °F 46.9 °F 41% 30.25 in 10.0 mi NW 11.5 mph - N/A   Clear
11:53 AM 73.9 °F 42.1 °F 32% 30.23 in 10.0 mi WNW 12.7 mph - N/A   Clear
12:53 PM 75.0 °F 39.9 °F 28% 30.21 in 10.0 mi NW 12.7 mph 20.7 mph N/A   Clear
1:53 PM 75.9 °F 39.0 °F 26% 30.19 in 10.0 mi West 11.5 mph 18.4 mph N/A   Clear
2:53 PM 75.9 °F 44.1 °F 32% 30.17 in 10.0 mi West 9.2 mph - N/A   Clear
3:53 PM 77.0 °F 42.1 °F 29% 30.16 in 10.0 mi West 5.8 mph - N/A   Clear
4:53 PM 75.9 °F 45.0 °F 33% 30.15 in 10.0 mi West 12.7 mph - N/A   Clear
5:53 PM 73.0 °F 54.0 °F 51% 30.16 in 10.0 mi SW 8.1 mph - N/A   Clear
6:53 PM 68.0 °F 54.0 °F 61% 30.17 in 10.0 mi SW 5.8 mph - N/A   Clear
7:53 PM 64.0 °F 57.0 °F 78% 30.18 in 10.0 mi WSW 6.9 mph - N/A   Clear
8:53 PM 61.0 °F 55.9 °F 83% 30.19 in 10.0 mi WSW 4.6 mph - N/A   Clear
9:53 PM 54.0 °F 52.0 °F 93% 30.20 in 10.0 mi Calm Calm - N/A   Clear
10:53 PM 52.0 °F 48.9 °F 89% 30.19 in 10.0 mi Calm Calm - N/A   Clear
11:53 PM 51.1 °F 48.0 °F 89% 30.19 in 10.0 mi Calm Calm - N/A   Clear